TimeCDT,TemperatureF,Dew PointF,Humidity,Sea Level PressureIn,VisibilityMPH,Wind Direction,Wind SpeedMPH,Gust SpeedMPH,PrecipitationIn,Events,Conditions,WindDirDegrees,DateUTC
12:15 AM,39.2,39.2,100,29.55,3.0,NNW,27.6,38.0,N/A,,Overcast,340,2012-10-19 05:15:00
12:35 AM,39.2,39.2,100,29.55,4.0,NNW,24.2,32.2,N/A,,Overcast,340,2012-10-19 05:35:00
12:55 AM,39.2,39.2,100,29.56,3.0,NNW,23.0,28.8,N/A,,Overcast,340,2012-10-19 05:55:00
1:15 AM,39.2,39.2,100,29.57,3.0,North,23.0,34.5,N/A,,Overcast,350,2012-10-19 06:15:00
1:35 AM,39.2,39.2,100,29.57,4.0,North,28.8,-,N/A,,Overcast,350,2012-10-19 06:35:00
1:55 AM,39.2,39.2,100,29.58,4.0,North,27.6,32.2,N/A,,Overcast,350,2012-10-19 06:55:00
2:15 AM,39.2,39.2,100,29.59,5.0,North,24.2,29.9,N/A,,Overcast,350,2012-10-19 07:15:00
2:35 AM,39.2,39.2,100,29.60,5.0,NNW,23.0,29.9,N/A,,Overcast,340,2012-10-19 07:35:00
2:55 AM,39.2,39.2,100,29.61,4.0,North,18.4,29.9,N/A,,Overcast,350,2012-10-19 07:55:00
3:15 AM,39.2,39.2,100,29.62,5.0,NNW,21.9,26.5,N/A,,Overcast,340,2012-10-19 08:15:00
3:35 AM,39.2,39.2,100,29.62,7.0,North,20.7,31.1,N/A,,Overcast,350,2012-10-19 08:35:00
3:55 AM,39.2,39.2,100,29.62,10.0,North,23.0,28.8,N/A,,Overcast,350,2012-10-19 08:55:00
4:15 AM,39.2,39.2,100,29.62,10.0,North,21.9,27.6,N/A,,Overcast,350,2012-10-19 09:15:00
4:35 AM,39.2,37.4,93,29.63,10.0,North,18.4,24.2,N/A,,Overcast,350,2012-10-19 09:35:00
4:55 AM,39.2,37.4,93,29.63,10.0,NNW,18.4,23.0,N/A,,Overcast,340,2012-10-19 09:55:00
5:15 AM,39.2,37.4,93,29.64,3.0,NNW,17.3,-,N/A,,Overcast,340,2012-10-19 10:15:00
5:35 AM,39.2,37.4,93,29.64,7.0,NNW,17.3,-,N/A,,Overcast,330,2012-10-19 10:35:00
5:55 AM,39.2,37.4,93,29.65,10.0,NNW,16.1,-,N/A,,Overcast,330,2012-10-19 10:55:00
6:15 AM,39.2,37.4,93,29.65,3.0,NNW,17.3,-,N/A,,Overcast,340,2012-10-19 11:15:00
6:35 AM,37.4,37.4,100,29.66,2.5,NNW,15.0,-,N/A,,Drizzle,330,2012-10-19 11:35:00
6:55 AM,37.4,37.4,100,29.66,3.0,NNW,17.3,21.9,0.01,,Drizzle,340,2012-10-19 11:55:00
7:15 AM,37.4,37.4,100,29.66,2.5,NNW,15.0,21.9,N/A,,Heavy Drizzle,340,2012-10-19 12:15:00
7:35 AM,37.4,37.4,100,29.66,3.0,NNW,12.7,-,0.01,,Drizzle,340,2012-10-19 12:35:00
7:55 AM,37.4,37.4,100,29.67,3.0,NNW,15.0,-,0.02,,Drizzle,330,2012-10-19 12:55:00
8:15 AM,37.4,37.4,100,29.67,4.0,NNW,16.1,-,N/A,,Drizzle,340,2012-10-19 13:15:00
8:36 AM,37.4,37.4,100,29.68,2.5,NNW,15.0,-,0.02,,Heavy Drizzle,340,2012-10-19 13:36:00
8:55 AM,37.4,37.4,100,29.69,3.0,NNW,18.4,21.9,0.04,,Heavy Drizzle,340,2012-10-19 13:55:00
9:15 AM,37.4,37.4,100,29.69,4.0,NNW,16.1,19.6,0.01,,Drizzle,340,2012-10-19 14:15:00
9:36 AM,37.4,37.4,100,29.69,4.0,NNW,13.8,-,0.02,,Drizzle,340,2012-10-19 14:36:00
9:55 AM,37.4,37.4,100,29.69,5.0,NNW,13.8,19.6,0.02,,Drizzle,340,2012-10-19 14:55:00
10:15 AM,37.4,37.4,100,29.70,5.0,NNW,13.8,-,0.01,,Drizzle,330,2012-10-19 15:15:00
10:36 AM,37.4,37.4,100,29.71,7.0,NNW,13.8,-,0.01,,Drizzle,330,2012-10-19 15:36:00
10:55 AM,37.4,37.4,100,29.71,7.0,NNW,15.0,-,0.02,Rain,Light Rain,330,2012-10-19 15:55:00
11:15 AM,39.2,37.4,93,29.70,5.0,NNW,12.7,-,0.02,Rain,Rain,330,2012-10-19 16:15:00
11:36 AM,39.2,37.4,93,29.71,5.0,NNW,10.4,-,0.02,,Drizzle,330,2012-10-19 16:36:00
11:55 AM,39.2,37.4,93,29.71,7.0,NNW,13.8,-,0.02,,Light Drizzle,330,2012-10-19 16:55:00
12:15 PM,39.2,37.4,93,29.72,3.0,NNW,13.8,-,N/A,,Light Drizzle,340,2012-10-19 17:15:00
12:36 PM,39.2,37.4,93,29.72,1.8,NNW,13.8,-,N/A,,Drizzle,340,2012-10-19 17:36:00
12:55 PM,39.2,37.4,93,29.72,2.5,NNW,12.7,-,N/A,,Light Drizzle,330,2012-10-19 17:55:00
1:15 PM,39.2,39.2,100,29.71,4.0,NNW,10.4,-,N/A,,Drizzle,340,2012-10-19 18:15:00
1:36 PM,39.2,39.2,100,29.71,10.0,NNW,12.7,-,N/A,,Light Drizzle,340,2012-10-19 18:36:00
1:55 PM,39.2,39.2,100,29.71,5.0,North,10.4,-,N/A,,Light Drizzle,350,2012-10-19 18:55:00
2:15 PM,39.2,39.2,100,29.71,4.0,NNW,9.2,-,N/A,,Light Drizzle,330,2012-10-19 19:15:00
2:35 PM,39.2,39.2,100,29.71,3.0,NNW,8.1,-,N/A,,Light Drizzle,340,2012-10-19 19:35:00
2:55 PM,39.2,39.2,100,29.71,2.0,NNW,8.1,-,N/A,,Light Drizzle,330,2012-10-19 19:55:00
3:15 PM,39.2,39.2,100,29.71,5.0,North,8.1,-,N/A,,Overcast,350,2012-10-19 20:15:00
3:35 PM,39.2,39.2,100,29.70,2.0,North,6.9,-,N/A,,Overcast,10,2012-10-19 20:35:00
3:55 PM,41.0,39.2,93,29.70,1.8,Calm,Calm,-,N/A,,Overcast,0,2012-10-19 20:55:00
4:15 PM,42.8,41.0,93,29.71,7.0,Calm,Calm,-,N/A,,Overcast,0,2012-10-19 21:15:00
4:35 PM,41.0,39.2,93,29.71,2.0,Calm,Calm,-,N/A,,Overcast,0,2012-10-19 21:35:00
4:55 PM,41.0,39.2,93,29.71,2.0,Calm,Calm,-,N/A,,Overcast,0,2012-10-19 21:55:00
5:15 PM,41.0,39.2,93,29.71,0.8,NW,6.9,-,N/A,,Drizzle,310,2012-10-19 22:15:00
5:35 PM,39.2,39.2,100,29.72,7.0,WNW,6.9,-,N/A,,Overcast,300,2012-10-19 22:35:00
5:55 PM,39.2,39.2,100,29.73,3.0,NW,6.9,-,N/A,,Overcast,310,2012-10-19 22:55:00
6:15 PM,39.2,39.2,100,29.73,7.0,WNW,4.6,-,N/A,,Overcast,300,2012-10-19 23:15:00
6:35 PM,39.2,39.2,100,29.74,4.0,Calm,Calm,-,N/A,,Overcast,0,2012-10-19 23:35:00
6:55 PM,39.2,39.2,100,29.74,3.0,NW,4.6,-,N/A,,Overcast,310,2012-10-19 23:55:00
7:15 PM,39.2,37.4,93,29.73,5.0,Calm,Calm,-,N/A,,Overcast,0,2012-10-20 00:15:00
7:35 PM,39.2,37.4,93,29.73,10.0,Calm,Calm,-,N/A,,Overcast,0,2012-10-20 00:35:00
7:55 PM,39.2,39.2,100,29.74,10.0,Calm,Calm,-,N/A,,Overcast,0,2012-10-20 00:55:00
8:15 PM,39.2,39.2,100,29.74,10.0,Calm,Calm,-,N/A,,Overcast,0,2012-10-20 01:15:00
8:35 PM,39.2,39.2,100,29.73,2.5,Calm,Calm,-,N/A,,Overcast,0,2012-10-20 01:35:00
8:55 PM,39.2,37.4,93,29.73,10.0,Calm,Calm,-,N/A,,Overcast,0,2012-10-20 01:55:00
9:16 PM,39.2,37.4,93,29.73,10.0,Calm,Calm,-,N/A,,Overcast,0,2012-10-20 02:16:00
9:35 PM,39.2,39.2,100,29.73,7.0,Calm,Calm,-,N/A,,Overcast,0,2012-10-20 02:35:00
9:55 PM,39.2,37.4,93,29.73,2.5,Calm,Calm,-,N/A,,Overcast,0,2012-10-20 02:55:00
10:15 PM,39.2,37.4,93,29.73,0.5,Calm,Calm,-,N/A,Fog,Fog,0,2012-10-20 03:15:00
10:35 PM,39.2,37.4,93,29.73,0.2,Calm,Calm,-,N/A,Fog,Fog,0,2012-10-20 03:35:00
10:55 PM,39.2,37.4,93,29.73,0.5,Calm,Calm,-,N/A,Fog,Fog,0,2012-10-20 03:55:00
11:15 PM,39.2,37.4,93,29.73,0.5,Calm,Calm,-,N/A,Fog,Fog,0,2012-10-20 04:15:00
11:35 PM,37.4,37.4,100,29.73,0.5,Calm,Calm,-,N/A,Fog,Fog,0,2012-10-20 04:35:00
11:55 PM,39.2,37.4,93,29.73,1.0,Calm,Calm,-,N/A,,Overcast,0,2012-10-20 04:55:00